Погода в Малопесчанке

Россия / Кемеровская область (Кузбасс)     56°25′52″N   87°07′14″E
темп.,
°C
ветер,
м/с
пор.,
м/с
влажн.,
%
обл.,
%
осадки,
мм/ч
давл.,
гПа
погр.,
м
29 ноября, пн
пн2901:00−7зюз6139189 0.1 1033469
04:00−7юз61291100 0.0 1033393
07:00−8юз51191100 0.1 1034359
10:00−9юз51391100 0.0 1034404
13:00−8юз61391100 0.1 1033470
16:00−7юз61389100 0.0 1032465
19:00−8юз61487100 0.0 1031413
22:00−7юз61486100 0.0 1030416
30 ноября, вт
вт3001:00−7юз6158294 0.0 1028434
04:00−8юз6167893 0.0 1027419
07:00−8юз6157994 0.0 1026405
10:00−8юз61678100 0.0 1025415
13:00−6юз7167894 0.0 1024502
16:00−6юз71676100 0.0 1024487
19:00−7юз61578100 0.0 1024443
22:00−8юз615795 0.0 1025385
1 декабря, ср
ср101:00−9юз6148270 0.0 1025310
04:00−10юз51285100 0.0 1026291
07:00−11юз51186100 0.0 1027254
10:00−12юз41188100 0.0 1028220
13:00−9ююз51284100 0.0 1027329
16:00−8ююз5138177 0.0 1026376
19:00−7ююз51580100 0.0 1024425
22:00−6юз71778100 0.0 1023466
2 декабря, чт
чт201:00−6юз61779100 0.0 1023491
04:00−6юз71779100 0.0 1022425
07:00−5юз61779100 0.0 1021448
10:00−6юз61579100 0.0 1021426
13:00−5юз6167899 0.0 1020431
16:00−4юз61578100 0.0 1019441
19:00−4ююз6157799 0.0 1019399
22:00−4ююз61676100 0.0 1017369
3 декабря, пт
пт301:00−4ююз61774100 0.0 1016391
04:00−3ююз61772100 0.0 1014395
07:00−2ююз72068100 0.0 1011461
10:000ююз81966100 0.0 1009542
13:00+2ююз81965100 0.0 1005673
16:00+2юз91972100 0.0 1003881
19:000юз101896100 0.9 10031100
22:000зюз9178899 0.5 10081246